Location: Hains Lake
(37.8540°N, 99.8578°W)
Time: 23:53:04
(UTC+00:00)

Explorer 7 - Pass Details

Date: 19 April 2021
Orbit: 484 x 677 km, 50.3° (Epoch: 14 May)

Event Time Altitude Azimuth Distance (km) Brightness Sun altitude
Rises 04:28:17 0° 277° (W) 2,682 10.9 -32.2°
Reaches altitude 10° 04:30:54 10° 294° (WNW) 1,829 10.1 -32.5°
Enters shadow 04:33:57 21° 341° (NNW) 1,316 9.3 -32.9°
